Hourly Data Report for October 14, 2019

SAINT JOHN A
NEW BRUNSWICK
Current Station Operator: NAVCAN

45°18'58.000" N
65°53'24.000" W
108.80 m
8104901
71609
YSJ

Download Data

Hourly Data (October 2019)
Hourly Data Report for October 14, 2019
TIME
LST
Temp Definition
°C
Dew Point Definition
°C
Rel Hum Definition
%
Precip. Amount Definition
mm

Wind Dir Definition
10's deg

Wind Spd Definition
km/h
Visibility Definition
km
Stn Press Definition
kPa
Hmdx Definition


Wind Chill Definition


Weather Definition


00:00 5.5 5.5 100     0 0.8 100.44     Fog
01:00 7.1 7.1 100   32 3 0.2 100.46     Fog
02:00 7.9 7.9 100   6 4 0.4 100.44     Fog
03:00 8.2 8.2 100   36 2 1.6 100.46     Fog
04:00 8.6 8.6 100   17 3 6.4 100.48     Fog
05:00 7.9 7.9 100   36 2 16.1 100.45     Mostly Cloudy
06:00 6.4 6.4 100   36 2 9.7 100.46     LegendNANA
07:00 6.7 6.7 100   33 3 9.7 100.52     Fog
08:00 8.2 8.2 100   36 2 8.1 100.59     Fog
09:00 10.5 10.5 100   14 5 16.1 100.61     LegendNANA
10:00 11.9 11.6 98   15 9 24.1 100.55     LegendNANA
11:00 13.2 10.5 84   17 6 24.1 100.56     Cloudy
12:00 14.8 11.0 78   17 9 24.1 100.50     LegendNANA
13:00 15.3 10.5 73   18 8 24.1 100.44     LegendNANA
14:00 14.9 10.1 73   14 18 24.1 100.38     Mainly Clear
15:00 14.6 9.6 72   14 17 24.1 100.35     LegendNANA
16:00 13.9 9.9 77   17 14 24.1 100.37     LegendNANA
17:00 12.9 9.7 81   14 10 24.1 100.34     Mostly Cloudy
18:00 12.3 9.8 85   13 12 24.1 100.33     LegendNANA
19:00 12.0 10.3 89   12 9 24.1 100.31     LegendNANA
20:00 11.9 10.6 92   16 16 24.1 100.29     Cloudy
21:00 11.5 10.1 91   16 15 24.1 100.32     LegendNANA
22:00 11.3 10.0 92   14 17 24.1 100.28     LegendNANA
23:00 10.8 10.1 95   13 15 24.1 100.22     Cloudy

Notes on Data Quality.

Legend

  • E = Estimated
  • M = Missing
  • NA = Not Available*
  • [empty] = Indicates an unobserved value
Date modified: